Flag for U.S.A. Weather past 2 weeks in Fresno, California, U.S.A.

Now
92 °F

Passing clouds.


Feels Like: 89 °F
Forecast: 74 / 102 °F
Wind: 7 mph from Northwest

Location: Fresno Air Terminal

Current Time: Jul 25, 2014 at 10:42:12 PM

Latest Report: Jul 25, 2014 at 9:53 PM


Visibility: 10 mi

Pressure: 29.81 "Hg

Humidity: 26%

Dew point: 52 °F

Location of FresnoLocation

Historic Weather in Fresno — Graph

°F

Fresno temperature yesterday

Maximum temperature yesterday: 97 °F (at 4:53 PM)
Minimum temperature yesterday: 68 °F (at 5:53 AM)
Average temperature yesterday: 83 °F

Past Weeks' High & Low Weather Summary

 TemperatureHumidityPressure
High102 °F (Jul 13, 4:53 PM)68% (Jul 11, 5:53 AM)30.11 "Hg (Jul 11, 5:53 AM)
Low66 °F (Jul 12, 5:53 AM)13% (Jul 25, 5:53 PM)29.76 "Hg (Jul 25, 5:53 PM)
Average84 °F40%29.90 "Hg
* Reported Jul 10 8:53 PM — Jul 25 8:53 PM, Fresno, Weather by CustomWeather, © 2014

Note: Actual official high and low records may vary slightly from our data, if they occured in-between our weather recording intervals... More about our weather records

Advertising

Fresno weather history for previous 24 hours

 ConditionsComfort  
Time TempWeatherWind HumidityBarometerVisibility
8:53 PM
Jul 25
95 °FPartly sunny.10 mph21%29.79 "Hg10 mi
7:53 PM99 °FPartly sunny.8 mph18%29.78 "Hg10 mi
6:53 PM101 °FPartly sunny.10 mph14%29.76 "Hg10 mi
5:53 PM102 °FPartly sunny.8 mph13%29.76 "Hg10 mi
4:53 PM102 °FPartly sunny.8 mph15%29.77 "Hg10 mi
3:53 PM101 °FPartly sunny.9 mph16%29.78 "Hg10 mi
2:53 PM102 °FPartly sunny.10 mph16%29.80 "Hg10 mi
1:53 PM101 °FPartly sunny.7 mph17%29.82 "Hg10 mi
12:53 PM98 °FBroken clouds.N/A19%29.83 "Hg10 mi
11:53 AM93 °FPartly sunny.No wind27%29.83 "Hg10 mi
10:53 AM89 °FPartly sunny.3 mph32%29.84 "Hg10 mi
9:53 AM86 °FPartly sunny.6 mph37%29.85 "Hg10 mi
8:53 AM82 °FBroken clouds.5 mph41%29.85 "Hg10 mi
7:53 AM78 °FBroken clouds.3 mph46%29.84 "Hg10 mi
6:53 AM74 °FPartly cloudy.No wind57%29.83 "Hg10 mi
5:53 AM71 °FPartly cloudy.3 mph63%29.81 "Hg10 mi
4:53 AM74 °FPassing clouds.No wind57%29.80 "Hg10 mi
3:53 AM75 °FPassing clouds.No wind55%29.80 "Hg10 mi
2:53 AM76 °FPassing clouds.No wind54%29.80 "Hg10 mi
1:53 AM78 °FPassing clouds.5 mph48%29.80 "Hg10 mi
12:53 AM81 °FPassing clouds.3 mph42%29.81 "Hg10 mi
11:53 PM
Jul 24
83 °FPassing clouds.5 mph37%29.81 "Hg10 mi
10:53 PM84 °FPassing clouds.7 mph35%29.80 "Hg10 mi
Weather by CustomWeather, © 2014

See weather overviewHow to use our weather pages